Location: Casco Volunteer Fire Department
(44.5576°N, 87.6146°W)
Time: 07:08:23
(UTC+00:00)

ARIANE 6 FM1 Upper Stage - Visible Passes

Search period start: 12 March 2026 00:00
Search period end: 22 March 2026 00:00
Orbit: 523 x 607 km, 62.0° (Epoch: 11 March)

Date Brightness Start Highest point End Pass type
(mag) Time Alt. Az. Time Alt. Az. Time Alt. Az.
12 Mar 5.2 09:09:59 16° ESE 09:09:59 16° ESE 09:11:58 10° ENE visible
12 Mar 2.7 10:46:00 28° WSW 10:47:57 57° NW 10:51:56 10° NNE visible
13 Mar 4.9 09:10:10 21° E 09:10:10 21° E 09:12:17 10° ENE visible
13 Mar 3.2 10:46:10 27° W 10:47:48 41° NW 10:51:38 10° NNE visible
14 Mar 4.7 09:10:14 25° ENE 09:10:14 25° ENE 09:12:21 10° NE visible
14 Mar 3.6 10:46:14 24° WNW 10:47:41 30° NW 10:51:16 10° NNE visible
15 Mar 4.6 09:10:12 28° ENE 09:10:12 28° ENE 09:12:17 10° NE visible
15 Mar 4.0 10:46:12 20° WNW 10:47:34 23° NW 10:50:51 10° NNE visible
16 Mar 4.5 09:10:06 28° NE 09:10:06 28° NE 09:12:07 10° NE visible
16 Mar 4.4 10:46:06 16° WNW 10:47:31 18° NNW 10:50:22 10° NNE visible
17 Mar 4.5 09:09:56 27° NNE 09:09:56 27° NNE 09:11:53 10° NE visible
17 Mar 4.7 10:45:56 12° NW 10:47:29 15° NNW 10:49:49 10° N visible
18 Mar 4.6 09:09:43 25° NNE 09:09:43 25° NNE 09:11:34 10° NNE visible
18 Mar 4.9 10:45:50 10° NW 10:47:29 12° NNW 10:49:07 10° N visible
19 Mar 4.7 09:09:27 22° N 09:09:27 22° N 09:11:12 10° NNE visible
20 Mar 4.8 09:09:08 20° N 09:09:08 20° N 09:10:47 10° NNE visible
21 Mar 4.9 09:08:46 17° N 09:08:46 17° N 09:10:18 10° NNE visible
